User: anonymous   Login
Location: Unspecified
(0.0000°N, 0.0000°E)
Time: 18:59:05
(UTC+00:00)
Language:

Okean 1-7 - Orbit

View from above orbital plane
View from above orbital plane
View from above satellite
View from above satellite

Ground track
Ground track

The orbit data is extracted from the following two-line orbital elements,

1 23317U 94066A   17084.91632101 +.00000260 +00000-0 +25949-4 0  9995
2 23317 082.5401 196.6092 0019255 345.6882 014.3787 14.87366773213579
Epoch (UTC): 25 March 2017 21:59:30
Eccentricity: 0.0019255
inclination: 82.5401°
perigee height: 593 km
apogee height: 619 km
right ascension of ascending node: 196.6092°
argument of perigee: 345.6882°
revolutions per day: 14.87366773
mean anomaly at epoch: 14.3787°
orbit number at epoch: 21357

The dashed part of the orbit path shows where the satellite is in the earth's shadow,  

DLR